Regional Weather Roundup
Issued by NWS

Home | Current Version | Previous Version | Graphics & Text | Print | Product List | Glossary On
Versions: 1 2 3 4 5 6 7 8 9 10 11 12 13 14 15 16 17 18 19 20 21 22 23 24 25 26 27
000
ASUS45 KSLC 111010
RWRUT

UTAH REGIONAL WEATHER ROUNDUP
NATIONAL WEATHER SERVICE SALT LAKE CITY UT
300 AM MST MON DEC 11 2017

UTZ001>011-023>025-111100-

NORTHERN UTAH

CITY           SKY/WX    TMP DP  RH WIND       PRES   REMARKS
BRIGHAM CITY   PTCLDY    19  15  84 CALM      30.62S
HILL AFB       PTCLDY    22  16  77 E8        30.59R WCI  13
LOGAN          CLOUDY    20  13  74 CALM      30.63S
OGDEN          PTCLDY    22  15  75 S6        30.60R WCI  14
SALT LAKE CITY PTCLDY    23  20  88 CALM      30.61S
TOOELE VALLEY  FOG       21  21 100 SE6       30.62S VSB 1/4 WCI  14
WENDOVER       MOCLDY    14   9  80 W5        30.62F WCI   6
HEBER CITY       N/A     12   7  79 CALM      30.58R
WEST JORDAN    PTCLDY    19  18  94 CALM      30.60F

$$

UTZ011>015-024>027-111100-

CENTRAL/NORTHEAST UTAH

CITY           SKY/WX    TMP DP  RH WIND       PRES   REMARKS
PROVO AIRPORT  PTCLDY    15  12  88 CALM      30.62R
MOAB/CANYONLAN MOCLDY    13  -1  54 W5        30.53R WCI   5
DELTA          CLOUDY    12   9  85 S3        30.59S
PRICE          PTCLDY    20  -3  36 NE5       30.50S WCI  13
ROOSEVELT      CLOUDY    12   5  73 CALM      30.60S
VERNAL         CLOUDY    16   6  65 N3        30.58R

$$

UTZ013>016-019>022-027-111100-

SOUTHERN UTAH

CITY           SKY/WX    TMP DP  RH WIND       PRES   REMARKS
BRYCE CANYON   PTCLDY    11 -14  31 W13       30.55S WCI  -4
CEDAR CITY     MOCLDY    15   3  59 SE5       30.52S WCI   8
MILFORD        CLOUDY     7   3  84 CALM      30.56S
ST GEORGE      MOSUNNY   36   2  23 CALM      30.49R
HANKSVILLE     CLOUDY    12   0  57 CALM      30.57S
BLANDING         N/A     21   0  38 CALM      30.57R

$$

REGIONAL REPORTS     COLORADO/ARIZONA

CITY           SKY/WX    TMP DP  RH WIND       PRES   REMARKS
CRAIG, CO      CLOUDY     5   0  79 CALM      30.56S
GRAND JUNCTION CLOUDY    17  -1  45 E5        30.55S WCI  10
RIFLE, CO      CLOUDY    15   2  56 S6        30.59R WCI   6
MONTROSE, CO   CLOUDY    19  -1  41 S8        30.57R WCI   9
CORTEZ, CO     CLOUDY     9  -2  61 NE5       30.51R WCI   1
COLORADO CITY    N/A     12  -9  37 E3        30.51R
PAGE, AZ       CLOUDY    28  13  53 SW3       30.51S
GRAND CANYON   MOCLDY    21  -9  26 NE6       30.48S WCI  13
KINGMAN, AZ    PTCLDY    40  -1  18 NE5       30.36S
FLAGSTAFF, AZ  MOCLDY    19  -7  31 CALM      30.48S

$$

REGIONAL REPORTS    NEVADA/IDAHO/WYOMING

CITY           SKY/WX    TMP DP  RH WIND       PRES   REMARKS
LAS VEGAS, NV  MOCLDY    44   6  21 SW6       30.36S
ELY, NY        MOCLDY     6  -8  52 S14       30.56R WCI -11
ELKO, NV       MOCLDY    15  11  83 E3        30.56R
POCATELLO, ID  CLOUDY    11   7  84 E5        30.60S FOG     WCI   3
BURLEY, ID     MOCLDY    15  13  91 MISG      30.58S FOG
FORT BRIDGER,    N/A     35   1  23 W12       30.55S WCI  26
EVANSTON, WY   CLOUDY    26   4  38 CALM      30.55S
ROCK SPRINGS,  CLOUDY    28   5  37 SW14      30.50S WCI  17

$$




USA.gov is the U.S. government's official web portal to all federal, state and local government web resources and services.